Flag Weather past 2 weeks in Concepción, Chile

Now
63 °F

Sunny.


Feels Like: 63 °F
Forecast: N/A
Wind: 14 mph from Southwest

Location: Concepcion Airport

Current Time: Nov 22, 2014 at 6:54:31 PM

Latest Report: Nov 22, 2014 at 6:00 PM


Visibility: 10 mi

Pressure: 30.01 "Hg

Humidity: 59%

Dew point: 48 °F

Location of ConcepciónLocation

Historic Weather in Concepción — Graph

°F

Concepción temperature yesterday

Maximum temperature yesterday: 68 °F (at 2:00 PM)
Minimum temperature yesterday: 46 °F (at 7:00 AM)
Average temperature yesterday: 58 °F

Past Weeks' High & Low Weather Summary

 TemperatureHumidityPressure
High73 °F (Nov 16, 1:00 PM)100% (Nov 16, 9:00 PM)30.18 "Hg (Nov 16, 9:00 PM)
Low45 °F (Nov 20, 6:00 AM)43% (Nov 12, 11:00 AM)29.86 "Hg (Nov 17, 5:00 AM)
Average58 °F74%30.06 "Hg
* Reported Nov 7 5:00 PM — Nov 22 5:00 PM, Concepción, Weather by CustomWeather, © 2014

Note: Actual official high and low records may vary slightly from our data, if they occured in-between our weather recording intervals... More about our weather records

Advertising

Concepción weather history for previous 24 hours

 ConditionsComfort  
Time TempWeatherWind HumidityBarometerVisibility
5:00 PM
Nov 22
64 °FSunny.14 mph56%30.01 "Hg10 mi
4:00 PM66 °FPassing clouds.13 mph56%30.04 "HgN/A
3:00 PM63 °FScattered clouds.13 mph64%30.04 "HgN/A
2:00 PM63 °FScattered clouds.12 mph64%30.04 "HgN/A
1:00 PM61 °FPassing clouds.9 mph63%30.04 "HgN/A
12:00 PM59 °FSunny.12 mph68%30.07 "Hg10 mi
11:00 AM61 °FPassing clouds.6 mph68%30.04 "HgN/A
10:00 AM57 °FSunny.3 mph72%30.07 "Hg10 mi
9:00 AM55 °FScattered clouds.5 mph82%30.07 "HgN/A
8:00 AM54 °FSunny.2 mph82%30.07 "Hg10 mi
7:00 AM48 °FSunny.2 mph94%30.04 "Hg10 mi
6:00 AM50 °FClear.6 mph88%30.04 "Hg10 mi
5:00 AM50 °FClear.7 mph88%30.04 "Hg10 mi
4:00 AM52 °FClear.8 mph88%30.07 "Hg10 mi
3:00 AM50 °FClear.3 mph88%30.07 "Hg10 mi
2:00 AM52 °FClear.6 mph88%30.07 "Hg10 mi
1:00 AM54 °FClear.7 mph82%30.09 "Hg10 mi
12:00 AM55 °FClear.10 mph77%30.09 "Hg10 mi
11:00 PM
Nov 21
55 °FClear.12 mph82%30.09 "Hg10 mi
10:00 PM57 °FClear.10 mph82%30.09 "Hg10 mi
9:00 PM59 °FClear.13 mph77%30.07 "Hg10 mi
8:00 PM61 °FPassing clouds.13 mph72%30.07 "HgN/A
7:00 PM64 °FSunny.14 mph64%30.07 "Hg10 mi
6:00 PM66 °FSunny.14 mph60%30.07 "Hg10 mi
Weather by CustomWeather, © 2014

See weather overviewHow to use our weather pages